Regional Weather Roundup
Issued by NWS Sioux Falls, SD

Home | Current Version | Previous Version | Graphics & Text | Print | Product List | Glossary On
Versions: 1 2 3 4 5 6 7 8 9 10 11 12 13 14 15 16 17 18 19 20 21 22 23 24 25 26 27 28 29 30 31 32 33 34 35 36 37 38 39 40 41 42 43 44 45 46 47 48 49 50
000
ASUS43 KFSD 272302
RWRFSD

WEATHER ROUNDUP FOR SE SOUTH DAKOTA/SW MINNESOTA/NW IOWA
NATIONAL WEATHER SERVICE SIOUX FALLS SD
600 PM CDT TUE JUN 27 2017

NOTE: "FAIR" INDICATES FEW OR NO CLOUDS BELOW 12,000 FEET WITH NO
SIGNIFICANT WEATHER AND OR OBSTRUCTIONS TO VISIBILITY.


SDZ038>040-050-052>070-280000-
SOUTHEAST SOUTH DAKOTA

CITY           SKY/WX    TMP DP  RH WIND       PRES   REMARKS
BROOKINGS      MOSUNNY   78  52  40 S30       29.71F
CHAMBERLAIN    PTSUNNY   87  64  46 SE23G31   29.60F
HURON          PTSUNNY   81  54  39 S22G36    29.62F
MADISON        FAIR      75  54  46 S23G35    29.72F
MITCHELL       PTSUNNY   84  57  39 SE24G35   29.65F
SIOUX FALLS    CLOUDY    78  56  46 SE22G29   29.75F
WINNER         FAIR      90  63  40 S25G35    29.59F
YANKTON        MOSUNNY   80  61  52 SE20G37   29.72F
$$

MNZ071-072-080-081-089-090-097-098-280000-
SOUTHWEST MINNESOTA

CITY           SKY/WX    TMP DP  RH WIND       PRES   REMARKS
FAIRMONT       MOSUNNY   76  47  35 S21G26    29.85F
JACKSON        SUNNY     77  43  29 S15G25    29.84F
MARSHALL       SUNNY     79  44  28 S23G31    29.78F
MONTEVIDEO     CLOUDY    77  45  31 S12G22    29.79S THUNDER
PIPESTONE      SUNNY     79  48  34 S24       29.79F
REDWOOD FALLS  PTSUNNY   80  40  23 S23G30    29.79F
TRACY          SUNNY     79  44  29 S22G30    29.79F
WINDOM         SUNNY     77  41  27 SE20G30   29.81F
$$

IAZ001>003-012>014-020>022-031-032-NEZ013-014-SDZ071-280000-
NORTHWEST IOWA

CITY           SKY/WX    TMP DP  RH WIND       PRES   REMARKS
CHEROKEE       SUNNY     79  56  44 S21       29.82F
DENISON        SUNNY     79  61  53 S21G32    29.86F
ESTHERVILLE    SUNNY     75  46  35 S21G30    29.85F
LE MARS        SUNNY     79  57  47 S18G26    29.80S
ORANGE CITY    SUNNY     79  57  47 S17G25    29.80F
SHELDON        SUNNY     79  54  41 S20G29    29.79F
SIOUX CITY     SUNNY     80  61  52 S20G28    29.79F
SPENCER        SUNNY     80  50  34 S21G30    29.83F
STORM LAKE     SUNNY     79  55  44 S18G25    29.84F
$$

ABBREVIATIONS USED IN REMARKS
   TC - TEMPERATURE IN CELSIUS
  WCI - WIND CHILL INDEX
   HX - HEAT INDEX
  VSB - VISIBILITY




USA.gov is the U.S. government's official web portal to all federal, state and local government web resources and services.